{"data":{"norad_id":60293,"intl_designator":"2024-132R","name":"STARLINK-32159","alt_names":[],"object_type":"PAYLOAD","status":"ACTIVE","operator":null,"country":"US","launch_date":"2024-07-28","launch_site_code":"AFETR","launch_vehicle":null,"mission":null,"orbit_class":"UNKNOWN","rcs_meters":null,"size_class":null,"mass_kg":null,"dimensions":null,"purposes":["comms"],"wikipedia_slug":null,"has_3d_model":false,"image_url":null,"decayed_at":null,"tle_current":{"epoch":"2026-05-25T00:52:57.709920Z","epoch_age_seconds":67757,"freshness":"FRESH","line1":"1 60293U 24132R   26145.03677905  .00000643  00000+0  33845-4 0  9996","line2":"2 60293  53.1607  57.5072 0001248  82.0990 278.0152 15.30193239103255","mean_motion":15.30193239,"eccentricity":0.0001248,"inclination_deg":53.1607,"raan_deg":57.5072,"arg_perigee_deg":82.099,"mean_anomaly_deg":278.0152,"bstar":3.3845e-5,"rev_number":10325,"period_min":94.105761501146,"perigee_km":474.37995576335,"apogee_km":476.0905574786,"semimajor_km":6853.372256621,"source":"CELESTRAK","updated_at":"2026-05-25T13:38:19.224248Z"}}}